CHINASAT 9B

Last updated on Fri Oct 24 2025 00:02:51 GMT+0000 (Coordinated Universal Time)

1 49125U 21080A 25296.64489880 -.00000300 00000+0 00000+0 0 9995 2 49125 0.0169 214.2047 0003289 350.2229 161.4344 1.00268443 15270
UTC large
Height (km)
Speed (km/s)
/
Latitude / Longitude
Inclination (degrees)
Orbital Period (minutes)
Azimuth
Elevation
Range (km)
Doppler Factor

Next 0 passes for location: London (51.5072 / 0.1276)

Sorry there are no passes over London.